Time,TemperatureF,DewpointF,PressureIn,WindDirection,WindDirectionDegrees,WindSpeedMPH,WindSpeedGustMPH,Humidity,HourlyPrecipIn,Conditions,Clouds,dailyrainin,SoftwareType,DateUTC
2013-01-17 00:00:00,30.3,7.2,30.18,North,0,0.0,0.0,37,0.00,,CLR,0.00,VWS V14.01,2013-01-17 07:00:00,
2013-01-17 00:03:00,30.3,7.2,30.18,North,0,0.0,0.0,37,0.00,,CLR,0.00,VWS V14.01,2013-01-17 07:03:00,
2013-01-17 00:08:00,30.1,7.0,30.18,North,0,0.0,0.0,37,0.00,,CLR,0.00,VWS V14.01,2013-01-17 07:08:00,
2013-01-17 00:10:00,30.1,7.0,30.18,North,0,1.5,0.0,37,0.00,,CLR,0.00,VWS V14.01,2013-01-17 07:10:00,
2013-01-17 00:13:00,30.1,7.0,30.18,North,0,1.5,0.0,37,0.00,,CLR,0.00,VWS V14.01,2013-01-17 07:13:00,
2013-01-17 00:18:00,30.1,7.0,30.18,North,0,1.5,0.0,37,0.00,,CLR,0.00,VWS V14.01,2013-01-17 07:18:00,
2013-01-17 00:20:00,30.0,6.3,30.18,North,0,0.0,0.0,36,0.00,,CLR,0.00,VWS V14.01,2013-01-17 07:20:00,
2013-01-17 00:23:00,30.0,6.3,30.18,North,0,0.0,0.0,36,0.00,,CLR,0.00,VWS V14.01,2013-01-17 07:23:00,
2013-01-17 00:28:00,29.8,6.1,30.18,North,0,3.0,0.0,36,0.00,,CLR,0.00,VWS V14.01,2013-01-17 07:28:00,
2013-01-17 00:30:00,30.0,6.3,30.18,North,0,1.5,0.0,36,0.00,,CLR,0.00,VWS V14.01,2013-01-17 07:30:00,
2013-01-17 00:33:00,30.0,6.3,30.18,North,0,1.5,0.0,36,0.00,,CLR,0.00,VWS V14.01,2013-01-17 07:33:00,
2013-01-17 00:37:00,30.0,5.7,30.18,North,0,1.5,0.0,35,0.00,,CLR,0.00,VWS V14.01,2013-01-17 07:37:00,
2013-01-17 00:40:00,29.8,5.5,30.18,North,0,1.5,0.0,35,0.00,,CLR,0.00,VWS V14.01,2013-01-17 07:40:00,
2013-01-17 00:42:00,29.8,5.5,30.18,North,0,1.5,0.0,35,0.00,,CLR,0.00,VWS V14.01,2013-01-17 07:42:00,
2013-01-17 00:48:00,29.8,5.5,30.18,North,0,0.0,0.0,35,0.00,,CLR,0.00,VWS V14.01,2013-01-17 07:48:00,
2013-01-17 00:50:00,29.8,5.5,30.18,North,0,1.5,0.0,35,0.00,,CLR,0.00,VWS V14.01,2013-01-17 07:50:00,
2013-01-17 00:52:00,29.8,5.5,30.18,North,0,1.5,0.0,35,0.00,,CLR,0.00,VWS V14.01,2013-01-17 07:52:00,
2013-01-17 00:57:00,29.7,5.4,30.18,North,0,3.0,0.0,35,0.00,,CLR,0.00,VWS V14.01,2013-01-17 07:57:00,
2013-01-17 01:00:00,29.7,4.8,30.18,North,0,1.5,0.0,34,0.00,,CLR,0.00,VWS V14.01,2013-01-17 08:00:00,
2013-01-17 01:03:00,29.7,4.8,30.18,North,0,1.5,0.0,34,0.00,,CLR,0.00,VWS V14.01,2013-01-17 08:03:00,
2013-01-17 01:07:00,29.8,4.9,30.18,North,0,3.0,0.0,34,0.00,,CLR,0.00,VWS V14.01,2013-01-17 08:07:00,
2013-01-17 01:10:00,30.1,5.1,30.18,North,0,1.5,0.0,34,0.00,,CLR,0.00,VWS V14.01,2013-01-17 08:10:00,
2013-01-17 01:12:00,30.1,5.1,30.18,North,0,3.0,0.0,34,0.00,,CLR,0.00,VWS V14.01,2013-01-17 08:12:00,
2013-01-17 01:17:00,30.3,5.9,30.18,South,191,1.5,0.0,35,0.00,,CLR,0.00,VWS V14.01,2013-01-17 08:17:00,
2013-01-17 01:20:00,30.3,5.9,30.18,North,0,3.0,0.0,35,0.00,,CLR,0.00,VWS V14.01,2013-01-17 08:20:00,
2013-01-17 01:22:00,30.3,5.9,30.18,North,0,3.0,0.0,35,0.00,,CLR,0.00,VWS V14.01,2013-01-17 08:22:00,
2013-01-17 01:27:00,30.0,6.9,30.18,North,0,1.5,0.0,37,0.00,,CLR,0.00,VWS V14.01,2013-01-17 08:27:00,
2013-01-17 01:30:00,29.8,6.7,30.18,South,191,3.0,0.0,37,0.00,,CLR,0.00,VWS V14.01,2013-01-17 08:30:00,
2013-01-17 01:32:00,29.8,6.7,30.18,South,191,1.5,0.0,37,0.00,,CLR,0.00,VWS V14.01,2013-01-17 08:32:00,
2013-01-17 01:37:00,29.5,6.4,30.18,South,191,3.0,0.0,37,0.00,,CLR,0.00,VWS V14.01,2013-01-17 08:37:00,
2013-01-17 01:40:00,29.1,6.1,30.18,South,191,3.0,0.0,37,0.00,,CLR,0.00,VWS V14.01,2013-01-17 08:40:00,
2013-01-17 01:42:00,29.3,6.3,30.18,South,191,3.0,0.0,37,0.00,,CLR,0.00,VWS V14.01,2013-01-17 08:42:00,
2013-01-17 01:47:00,29.0,6.0,30.19,South,191,1.5,0.0,37,0.00,,CLR,0.00,VWS V14.01,2013-01-17 08:47:00,
2013-01-17 01:50:00,28.7,5.7,30.19,North,0,1.5,0.0,37,0.00,,CLR,0.00,VWS V14.01,2013-01-17 08:50:00,
2013-01-17 01:52:00,28.7,5.7,30.19,North,0,1.5,0.0,37,0.00,,CLR,0.00,VWS V14.01,2013-01-17 08:52:00,
2013-01-17 01:57:00,28.4,5.5,30.19,SSW,192,1.5,0.0,37,0.00,,CLR,0.00,VWS V14.01,2013-01-17 08:57:00,
2013-01-17 02:00:00,28.4,4.2,30.19,North,0,3.0,0.0,35,0.00,,CLR,0.00,VWS V14.01,2013-01-17 09:00:00,
2013-01-17 02:02:00,28.4,4.2,30.19,North,0,3.0,0.0,35,0.00,,CLR,0.00,VWS V14.01,2013-01-17 09:02:00,
2013-01-17 02:07:00,28.4,4.2,30.19,North,0,3.0,0.0,35,0.00,,CLR,0.00,VWS V14.01,2013-01-17 09:07:00,
2013-01-17 02:10:00,28.5,4.3,30.19,North,0,1.5,0.0,35,0.00,,CLR,0.00,VWS V14.01,2013-01-17 09:10:00,
2013-01-17 02:12:00,28.5,4.3,30.19,North,0,3.0,0.0,35,0.00,,CLR,0.00,VWS V14.01,2013-01-17 09:12:00,
2013-01-17 02:17:00,28.8,4.0,30.19,North,0,6.0,0.0,34,0.00,,CLR,0.00,VWS V14.01,2013-01-17 09:17:00,
2013-01-17 02:20:00,29.1,3.6,30.19,North,11,3.0,0.0,33,0.00,,CLR,0.00,VWS V14.01,2013-01-17 09:20:00,
2013-01-17 02:22:00,29.1,4.2,30.19,North,10,3.0,0.0,34,0.00,,CLR,0.00,VWS V14.01,2013-01-17 09:22:00,
2013-01-17 02:27:00,29.3,4.4,30.19,North,9,1.5,0.0,34,0.00,,CLR,0.00,VWS V14.01,2013-01-17 09:27:00,
2013-01-17 02:30:00,29.3,5.1,30.19,North,9,1.5,0.0,35,0.00,,CLR,0.00,VWS V14.01,2013-01-17 09:30:00,
2013-01-17 02:32:00,29.3,5.1,30.19,North,9,1.5,0.0,35,0.00,,CLR,0.00,VWS V14.01,2013-01-17 09:32:00,
2013-01-17 02:37:00,29.0,5.4,30.19,North,9,1.5,0.0,36,0.00,,CLR,0.00,VWS V14.01,2013-01-17 09:37:00,
2013-01-17 02:40:00,28.8,6.4,30.19,North,9,0.0,0.0,38,0.00,,CLR,0.00,VWS V14.01,2013-01-17 09:40:00,
2013-01-17 02:42:00,28.8,5.8,30.19,North,9,0.0,0.0,37,0.00,,CLR,0.00,VWS V14.01,2013-01-17 09:42:00,
2013-01-17 02:47:00,28.7,6.3,30.20,North,10,0.0,0.0,38,0.00,,CLR,0.00,VWS V14.01,2013-01-17 09:47:00,
2013-01-17 02:50:00,28.4,6.1,30.20,North,11,0.0,0.0,38,0.00,,CLR,0.00,VWS V14.01,2013-01-17 09:50:00,
2013-01-17 02:52:00,28.4,6.1,30.20,North,10,0.0,0.0,38,0.00,,CLR,0.00,VWS V14.01,2013-01-17 09:52:00,
2013-01-17 02:57:00,28.1,6.3,30.20,North,11,1.5,0.0,39,0.00,,CLR,0.00,VWS V14.01,2013-01-17 09:57:00,
2013-01-17 03:00:00,27.8,6.1,30.20,North,11,3.0,0.0,39,0.00,,CLR,0.00,VWS V14.01,2013-01-17 10:00:00,
2013-01-17 03:02:00,27.9,6.2,30.20,North,11,3.0,0.0,39,0.00,,CLR,0.00,VWS V14.01,2013-01-17 10:02:00,
2013-01-17 03:07:00,27.8,6.1,30.20,North,11,0.0,0.0,39,0.00,,CLR,0.00,VWS V14.01,2013-01-17 10:07:00,
2013-01-17 03:10:00,27.6,5.9,30.20,North,10,1.5,0.0,39,0.00,,CLR,0.00,VWS V14.01,2013-01-17 10:10:00,
2013-01-17 03:12:00,27.6,5.9,30.20,North,10,1.5,0.0,39,0.00,,CLR,0.00,VWS V14.01,2013-01-17 10:12:00,
2013-01-17 03:17:00,27.5,5.8,30.20,North,10,0.0,0.0,39,0.00,,CLR,0.00,VWS V14.01,2013-01-17 10:17:00,
2013-01-17 03:20:00,27.5,6.4,30.20,North,11,1.5,0.0,40,0.00,,CLR,0.00,VWS V14.01,2013-01-17 10:20:00,
2013-01-17 03:22:00,27.5,6.9,30.20,North,11,0.0,0.0,41,0.00,,CLR,0.00,VWS V14.01,2013-01-17 10:22:00,
2013-01-17 03:27:00,27.6,7.0,30.20,North,11,1.5,0.0,41,0.00,,CLR,0.00,VWS V14.01,2013-01-17 10:27:00,
2013-01-17 03:30:00,27.3,7.2,30.20,NNE,13,1.5,0.0,42,0.00,,CLR,0.00,VWS V14.01,2013-01-17 10:30:00,
2013-01-17 03:32:00,27.5,6.9,30.20,NNE,13,3.0,0.0,41,0.00,,CLR,0.00,VWS V14.01,2013-01-17 10:32:00,
2013-01-17 03:37:00,27.3,7.2,30.20,NNE,13,0.0,0.0,42,0.00,,CLR,0.00,VWS V14.01,2013-01-17 10:37:00,
2013-01-17 03:40:00,27.3,7.2,30.20,NNE,13,3.0,0.0,42,0.00,,CLR,0.00,VWS V14.01,2013-01-17 10:40:00,
2013-01-17 03:42:00,27.3,7.2,30.20,NNE,13,3.0,0.0,42,0.00,,CLR,0.00,VWS V14.01,2013-01-17 10:42:00,
2013-01-17 03:47:00,27.3,7.2,30.20,NNE,12,3.0,0.0,42,0.00,,CLR,0.00,VWS V14.01,2013-01-17 10:47:00,
2013-01-17 03:50:00,27.3,6.7,30.20,North,0,3.0,0.0,41,0.00,,CLR,0.00,VWS V14.01,2013-01-17 10:50:00,
2013-01-17 03:52:00,27.3,6.7,30.20,North,0,6.0,0.0,41,0.00,,CLR,0.00,VWS V14.01,2013-01-17 10:52:00,
2013-01-17 03:57:00,27.5,6.4,30.20,North,358,3.0,0.0,40,0.00,,CLR,0.00,VWS V14.01,2013-01-17 10:57:00,
2013-01-17 04:00:00,27.5,6.9,30.20,NNW,346,3.0,0.0,41,0.00,,CLR,0.00,VWS V14.01,2013-01-17 11:00:00,
2013-01-17 04:02:00,27.5,6.9,30.20,NNW,346,1.5,0.0,41,0.00,,CLR,0.00,VWS V14.01,2013-01-17 11:02:00,
2013-01-17 04:07:00,27.2,5.5,30.20,NNW,346,3.0,0.0,39,0.00,,CLR,0.00,VWS V14.01,2013-01-17 11:07:00,
2013-01-17 04:10:00,26.9,5.3,30.20,NNW,346,3.0,0.0,39,0.00,,CLR,0.00,VWS V14.01,2013-01-17 11:10:00,
2013-01-17 04:12:00,26.9,5.3,30.20,NNW,346,3.0,0.0,39,0.00,,CLR,0.00,VWS V14.01,2013-01-17 11:12:00,
2013-01-17 04:17:00,26.7,5.6,30.20,North,355,4.5,0.0,40,0.00,,CLR,0.00,VWS V14.01,2013-01-17 11:17:00,
2013-01-17 04:20:00,26.3,4.7,30.20,North,357,6.0,0.0,39,0.00,,CLR,0.00,VWS V14.01,2013-01-17 11:20:00,
2013-01-17 04:22:00,26.4,4.8,30.20,NNW,343,1.5,0.0,39,0.00,,CLR,0.00,VWS V14.01,2013-01-17 11:22:00,
2013-01-17 04:27:00,26.0,3.9,30.20,North,0,6.0,0.0,38,0.00,,CLR,0.00,VWS V14.01,2013-01-17 11:27:00,
2013-01-17 04:30:00,26.0,3.9,30.20,North,0,3.0,0.0,38,0.00,,CLR,0.00,VWS V14.01,2013-01-17 11:30:00,
2013-01-17 04:32:00,26.0,3.9,30.20,North,1,6.0,0.0,38,0.00,,CLR,0.00,VWS V14.01,2013-01-17 11:32:00,
2013-01-17 04:37:00,26.0,3.9,30.20,North,0,7.5,0.0,38,0.00,,CLR,0.00,VWS V14.01,2013-01-17 11:37:00,
2013-01-17 04:40:00,26.0,3.9,30.20,NNE,14,6.0,0.0,38,0.00,,CLR,0.00,VWS V14.01,2013-01-17 11:40:00,
2013-01-17 04:42:00,26.0,3.9,30.20,North,1,4.5,0.0,38,0.00,,CLR,0.00,VWS V14.01,2013-01-17 11:42:00,
2013-01-17 04:47:00,25.8,3.7,30.20,North,0,7.5,0.0,38,0.00,,CLR,0.00,VWS V14.01,2013-01-17 11:47:00,
2013-01-17 04:50:00,26.0,3.9,30.20,North,0,6.0,0.0,38,0.00,,CLR,0.00,VWS V14.01,2013-01-17 11:50:00,
2013-01-17 04:52:00,26.0,3.9,30.20,North,357,9.0,0.0,38,0.00,,CLR,0.00,VWS V14.01,2013-01-17 11:52:00,
2013-01-17 04:57:00,25.8,3.7,30.20,North,10,6.0,0.0,38,0.00,,CLR,0.00,VWS V14.01,2013-01-17 11:57:00,
2013-01-17 05:00:00,25.7,3.6,30.20,NNE,15,1.5,0.0,38,0.00,,CLR,0.00,VWS V14.01,2013-01-17 12:00:00,
2013-01-17 05:02:00,25.7,3.6,30.20,NNE,15,3.0,0.0,38,0.00,,CLR,0.00,VWS V14.01,2013-01-17 12:02:00,
2013-01-17 05:07:00,25.7,3.6,30.20,NNE,14,1.5,0.0,38,0.00,,CLR,0.00,VWS V14.01,2013-01-17 12:07:00,
2013-01-17 05:10:00,25.4,3.9,30.20,NNE,14,6.0,0.0,39,0.00,,CLR,0.00,VWS V14.01,2013-01-17 12:10:00,
2013-01-17 05:12:00,25.4,3.9,30.20,NNE,15,3.0,0.0,39,0.00,,CLR,0.00,VWS V14.01,2013-01-17 12:12:00,
2013-01-17 05:17:00,25.4,3.9,30.20,NNE,15,3.0,0.0,39,0.00,,CLR,0.00,VWS V14.01,2013-01-17 12:17:00,
2013-01-17 05:20:00,25.3,3.8,30.20,North,7,6.0,0.0,39,0.00,,CLR,0.00,VWS V14.01,2013-01-17 12:20:00,
2013-01-17 05:22:00,25.3,3.8,30.20,North,0,3.0,0.0,39,0.00,,CLR,0.00,VWS V14.01,2013-01-17 12:22:00,
2013-01-17 05:27:00,25.3,3.8,30.20,NNW,343,6.0,0.0,39,0.00,,CLR,0.00,VWS V14.01,2013-01-17 12:27:00,
2013-01-17 05:30:00,25.3,3.8,30.20,North,4,6.0,0.0,39,0.00,,CLR,0.00,VWS V14.01,2013-01-17 12:30:00,
2013-01-17 05:32:00,25.3,3.8,30.20,North,1,6.0,0.0,39,0.00,,CLR,0.00,VWS V14.01,2013-01-17 12:32:00,
2013-01-17 05:37:00,25.4,3.9,30.20,NNE,12,9.0,0.0,39,0.00,,CLR,0.00,VWS V14.01,2013-01-17 12:37:00,
2013-01-17 05:40:00,25.3,3.3,30.20,North,352,10.5,0.0,38,0.00,,CLR,0.00,VWS V14.01,2013-01-17 12:40:00,
2013-01-17 05:42:00,25.3,3.8,30.20,North,8,10.5,0.0,39,0.00,,CLR,0.00,VWS V14.01,2013-01-17 12:42:00,
2013-01-17 05:47:00,25.4,3.3,30.20,North,0,10.5,0.0,38,0.00,,CLR,0.00,VWS V14.01,2013-01-17 12:47:00,
2013-01-17 05:50:00,25.4,3.3,30.20,North,1,7.5,0.0,38,0.00,,CLR,0.00,VWS V14.01,2013-01-17 12:50:00,
2013-01-17 05:52:00,25.4,3.9,30.20,North,356,6.0,0.0,39,0.00,,CLR,0.00,VWS V14.01,2013-01-17 12:52:00,
2013-01-17 05:57:00,25.4,3.3,30.20,North,0,7.5,0.0,38,0.00,,CLR,0.00,VWS V14.01,2013-01-17 12:57:00,
2013-01-17 06:00:00,25.4,3.3,30.20,North,349,9.0,0.0,38,0.00,,CLR,0.00,VWS V14.01,2013-01-17 13:00:00,
2013-01-17 06:02:00,25.4,3.9,30.20,North,0,9.0,0.0,39,0.00,,CLR,0.00,VWS V14.01,2013-01-17 13:02:00,
2013-01-17 06:07:00,25.3,3.8,30.20,North,0,7.5,0.0,39,0.00,,CLR,0.00,VWS V14.01,2013-01-17 13:07:00,
2013-01-17 06:10:00,25.3,3.8,30.20,North,0,9.0,0.0,39,0.00,,CLR,0.00,VWS V14.01,2013-01-17 13:10:00,
2013-01-17 06:12:00,25.3,3.8,30.20,North,1,7.5,0.0,39,0.00,,CLR,0.00,VWS V14.01,2013-01-17 13:12:00,
2013-01-17 06:17:00,25.1,3.6,30.20,NNW,347,7.5,0.0,39,0.00,,CLR,0.00,VWS V14.01,2013-01-17 13:17:00,
2013-01-17 06:20:00,25.0,3.5,30.20,North,357,7.5,0.0,39,0.00,,CLR,0.00,VWS V14.01,2013-01-17 13:20:00,
2013-01-17 06:22:00,25.0,3.5,30.20,NNW,345,9.0,0.0,39,0.00,,CLR,0.00,VWS V14.01,2013-01-17 13:22:00,
2013-01-17 06:27:00,25.0,3.5,30.20,North,358,9.0,0.0,39,0.00,,CLR,0.00,VWS V14.01,2013-01-17 13:27:00,
2013-01-17 06:30:00,25.0,3.5,30.21,NNE,12,15.0,0.0,39,0.00,,CLR,0.00,VWS V14.01,2013-01-17 13:30:00,
2013-01-17 06:32:00,25.0,3.5,30.20,North,0,7.5,0.0,39,0.00,,CLR,0.00,VWS V14.01,2013-01-17 13:32:00,
2013-01-17 06:37:00,25.0,3.5,30.21,North,352,9.0,0.0,39,0.00,,CLR,0.00,VWS V14.01,2013-01-17 13:37:00,
2013-01-17 06:40:00,25.3,3.3,30.21,NNW,345,9.0,0.0,38,0.00,,CLR,0.00,VWS V14.01,2013-01-17 13:40:00,
2013-01-17 06:42:00,25.1,3.1,30.21,North,358,7.5,0.0,38,0.00,,CLR,0.00,VWS V14.01,2013-01-17 13:42:00,
2013-01-17 06:47:00,25.4,3.3,30.21,North,0,6.0,0.0,38,0.00,,CLR,0.00,VWS V14.01,2013-01-17 13:47:00,
2013-01-17 06:50:00,25.6,3.5,30.22,North,0,9.0,0.0,38,0.00,,CLR,0.00,VWS V14.01,2013-01-17 13:50:00,
2013-01-17 06:52:00,25.6,3.5,30.22,North,358,4.5,0.0,38,0.00,,CLR,0.00,VWS V14.01,2013-01-17 13:52:00,
2013-01-17 06:57:00,25.6,3.5,30.22,North,358,10.5,0.0,38,0.00,,CLR,0.00,VWS V14.01,2013-01-17 13:57:00,
2013-01-17 07:00:00,25.7,3.6,30.22,North,6,7.5,0.0,38,0.00,,CLR,0.00,VWS V14.01,2013-01-17 14:00:00,
2013-01-17 07:02:00,25.7,3.6,30.22,NW,324,15.0,0.0,38,0.00,,CLR,0.00,VWS V14.01,2013-01-17 14:02:00,
2013-01-17 07:07:00,25.8,3.1,30.22,North,0,7.5,0.0,37,0.00,,CLR,0.00,VWS V14.01,2013-01-17 14:07:00,
2013-01-17 07:10:00,26.0,3.3,30.22,North,1,10.5,0.0,37,0.00,,CLR,0.00,VWS V14.01,2013-01-17 14:10:00,
2013-01-17 07:12:00,26.0,3.3,30.22,NNW,338,7.5,0.0,37,0.00,,CLR,0.00,VWS V14.01,2013-01-17 14:12:00,
2013-01-17 07:17:00,26.0,3.3,30.22,NNW,342,7.5,0.0,37,0.00,,CLR,0.00,VWS V14.01,2013-01-17 14:17:00,
2013-01-17 07:20:00,26.1,3.4,30.23,North,1,10.5,0.0,37,0.00,,CLR,0.00,VWS V14.01,2013-01-17 14:20:00,
2013-01-17 07:22:00,26.1,3.4,30.23,North,0,7.5,0.0,37,0.00,,CLR,0.00,VWS V14.01,2013-01-17 14:22:00,
2013-01-17 07:27:00,26.4,3.7,30.23,North,0,12.0,0.0,37,0.00,,CLR,0.00,VWS V14.01,2013-01-17 14:27:00,
2013-01-17 07:30:00,26.7,3.9,30.22,North,358,15.0,0.0,37,0.00,,CLR,0.00,VWS V14.01,2013-01-17 14:30:00,
2013-01-17 07:32:00,26.7,3.9,30.23,North,358,10.5,0.0,37,0.00,,CLR,0.00,VWS V14.01,2013-01-17 14:32:00,
2013-01-17 07:37:00,27.0,3.6,30.22,North,1,7.5,0.0,36,0.00,,CLR,0.00,VWS V14.01,2013-01-17 14:37:00,
2013-01-17 07:40:00,27.3,3.9,30.22,North,0,7.5,0.0,36,0.00,,CLR,0.00,VWS V14.01,2013-01-17 14:40:00,
2013-01-17 07:42:00,27.2,3.8,30.22,North,2,9.0,0.0,36,0.00,,CLR,0.00,VWS V14.01,2013-01-17 14:42:00,
2013-01-17 07:47:00,27.5,3.5,30.22,North,356,10.5,0.0,35,0.00,,CLR,0.00,VWS V14.01,2013-01-17 14:47:00,
2013-01-17 07:50:00,27.8,3.7,30.23,NNW,339,7.5,0.0,35,0.00,,CLR,0.00,VWS V14.01,2013-01-17 14:50:00,
2013-01-17 07:52:00,27.8,3.7,30.23,NNW,344,10.5,0.0,35,0.00,,CLR,0.00,VWS V14.01,2013-01-17 14:52:00,
2013-01-17 07:57:00,28.1,4.0,30.23,North,0,7.5,0.0,35,0.00,,CLR,0.00,VWS V14.01,2013-01-17 14:57:00,
2013-01-17 08:00:00,28.7,4.5,30.23,North,352,10.5,0.0,35,0.00,,CLR,0.00,VWS V14.01,2013-01-17 15:00:00,
2013-01-17 08:02:00,28.5,4.3,30.23,North,1,7.5,0.0,35,0.00,,CLR,0.00,VWS V14.01,2013-01-17 15:02:00,
2013-01-17 08:07:00,28.8,4.0,30.23,North,352,7.5,0.0,34,0.00,,CLR,0.00,VWS V14.01,2013-01-17 15:07:00,
2013-01-17 08:10:00,29.1,4.2,30.23,North,0,13.5,0.0,34,0.00,,CLR,0.00,VWS V14.01,2013-01-17 15:10:00,
2013-01-17 08:12:00,29.1,4.2,30.23,North,352,15.0,0.0,34,0.00,,CLR,0.00,VWS V14.01,2013-01-17 15:12:00,
2013-01-17 08:17:00,29.4,4.5,30.23,North,355,15.0,0.0,34,0.00,,CLR,0.00,VWS V14.01,2013-01-17 15:17:00,
2013-01-17 08:20:00,30.0,4.4,30.24,North,356,10.5,0.0,33,0.00,,CLR,0.00,VWS V14.01,2013-01-17 15:20:00,
2013-01-17 08:21:00,29.8,4.2,30.24,North,0,7.5,0.0,33,0.00,,CLR,0.00,VWS V14.01,2013-01-17 15:21:00,
2013-01-17 08:26:00,30.3,4.7,30.24,NNW,344,9.0,0.0,33,0.00,,CLR,0.00,VWS V14.01,2013-01-17 15:26:00,
2013-01-17 08:30:00,30.7,4.3,30.24,North,350,16.5,0.0,32,0.00,,CLR,0.00,VWS V14.01,2013-01-17 15:30:00,
2013-01-17 08:31:00,30.7,4.3,30.24,North,358,16.5,0.0,32,0.00,,CLR,0.00,VWS V14.01,2013-01-17 15:31:00,
2013-01-17 08:36:00,31.0,3.9,30.24,North,0,7.5,0.0,31,0.00,,CLR,0.00,VWS V14.01,2013-01-17 15:36:00,
2013-01-17 08:40:00,31.8,4.6,30.24,North,4,10.5,0.0,31,0.00,,CLR,0.00,VWS V14.01,2013-01-17 15:40:00,
2013-01-17 08:41:00,31.5,5.1,30.24,North,356,7.5,0.0,32,0.00,,CLR,0.00,VWS V14.01,2013-01-17 15:41:00,
2013-01-17 08:46:00,32.2,5.0,30.24,North,0,9.0,0.0,31,0.00,,CLR,0.00,VWS V14.01,2013-01-17 15:46:00,
2013-01-17 08:50:00,33.2,5.1,30.25,North,3,6.0,0.0,30,0.00,,CLR,0.00,VWS V14.01,2013-01-17 15:50:00,
2013-01-17 08:51:00,32.9,4.9,30.25,North,4,9.0,0.0,30,0.00,,CLR,0.00,VWS V14.01,2013-01-17 15:51:00,
2013-01-17 08:56:00,33.7,4.8,30.25,NNW,347,7.5,0.0,29,0.00,,CLR,0.00,VWS V14.01,2013-01-17 15:56:00,
2013-01-17 09:00:00,34.6,5.6,30.25,North,354,3.0,0.0,29,0.00,,CLR,0.00,VWS V14.01,2013-01-17 16:00:00,
2013-01-17 09:01:00,34.4,5.4,30.25,NNE,13,4.5,0.0,29,0.00,,CLR,0.00,VWS V14.01,2013-01-17 16:01:00,
2013-01-17 09:06:00,34.9,5.1,30.25,NNW,340,16.5,0.0,28,0.00,,CLR,0.00,VWS V14.01,2013-01-17 16:06:00,
2013-01-17 09:10:00,35.6,5.7,30.25,North,358,7.5,0.0,28,0.00,,CLR,0.00,VWS V14.01,2013-01-17 16:10:00,
2013-01-17 09:11:00,35.5,5.6,30.25,North,0,15.0,0.0,28,0.00,,CLR,0.00,VWS V14.01,2013-01-17 16:11:00,
2013-01-17 09:16:00,35.9,6.0,30.25,NNW,348,7.5,0.0,28,0.00,,CLR,0.00,VWS V14.01,2013-01-17 16:16:00,
2013-01-17 09:20:00,36.6,6.6,30.26,NNE,21,15.0,0.0,28,0.00,,CLR,0.00,VWS V14.01,2013-01-17 16:20:00,
2013-01-17 09:21:00,36.3,6.3,30.26,North,358,7.5,0.0,28,0.00,,CLR,0.00,VWS V14.01,2013-01-17 16:21:00,
2013-01-17 09:26:00,37.3,5.6,30.26,North,9,9.0,0.0,26,0.00,,CLR,0.00,VWS V14.01,2013-01-17 16:26:00,
2013-01-17 09:30:00,38.0,6.2,30.26,North,0,12.0,0.0,26,0.00,,CLR,0.00,VWS V14.01,2013-01-17 16:30:00,
2013-01-17 09:31:00,37.9,6.1,30.26,NE,47,13.5,0.0,26,0.00,,CLR,0.00,VWS V14.01,2013-01-17 16:31:00,
2013-01-17 09:36:00,38.6,5.8,30.26,North,10,16.5,0.0,25,0.00,,CLR,0.00,VWS V14.01,2013-01-17 16:36:00,
2013-01-17 09:40:00,38.9,6.1,30.26,North,0,7.5,0.0,25,0.00,,CLR,0.00,VWS V14.01,2013-01-17 16:40:00,
2013-01-17 09:41:00,38.8,6.0,30.26,North,11,12.0,0.0,25,0.00,,CLR,0.00,VWS V14.01,2013-01-17 16:41:00,
2013-01-17 09:46:00,39.3,6.4,30.26,NNE,18,7.5,0.0,25,0.00,,CLR,0.00,VWS V14.01,2013-01-17 16:46:00,
2013-01-17 09:50:00,40.1,6.2,30.26,NNE,16,6.0,0.0,24,0.00,,CLR,0.00,VWS V14.01,2013-01-17 16:50:00,
2013-01-17 09:51:00,39.9,6.1,30.26,North,0,6.0,0.0,24,0.00,,CLR,0.00,VWS V14.01,2013-01-17 16:51:00,
2013-01-17 09:56:00,40.1,6.2,30.26,North,0,4.5,0.0,24,0.00,,CLR,0.00,VWS V14.01,2013-01-17 16:56:00,
2013-01-17 10:00:00,40.6,6.7,30.26,NNW,340,3.0,0.0,24,0.00,,CLR,0.00,VWS V14.01,2013-01-17 17:00:00,
2013-01-17 10:01:00,40.5,7.5,30.26,North,352,7.5,0.0,25,0.00,,CLR,0.00,VWS V14.01,2013-01-17 17:01:00,
2013-01-17 10:06:00,41.2,7.2,30.26,NW,326,6.0,0.0,24,0.00,,CLR,0.00,VWS V14.01,2013-01-17 17:06:00,
2013-01-17 10:10:00,41.9,6.8,30.26,NNW,338,4.5,0.0,23,0.00,,CLR,0.00,VWS V14.01,2013-01-17 17:10:00,
2013-01-17 10:11:00,41.6,6.6,30.26,NNE,32,6.0,0.0,23,0.00,,CLR,0.00,VWS V14.01,2013-01-17 17:11:00,
2013-01-17 10:16:00,42.2,6.1,30.26,North,0,4.5,0.0,22,0.00,,CLR,0.00,VWS V14.01,2013-01-17 17:16:00,
2013-01-17 10:20:00,42.5,6.3,30.26,North,0,7.5,0.0,22,0.00,,CLR,0.00,VWS V14.01,2013-01-17 17:20:00,
2013-01-17 10:21:00,42.5,7.3,30.26,North,1,6.0,0.0,23,0.00,,CLR,0.00,VWS V14.01,2013-01-17 17:21:00,
2013-01-17 10:26:00,42.8,6.6,30.26,NNE,26,7.5,0.0,22,0.00,,CLR,0.00,VWS V14.01,2013-01-17 17:26:00,
2013-01-17 10:30:00,43.5,6.2,30.26,NE,39,4.5,0.0,21,0.00,,CLR,0.00,VWS V14.01,2013-01-17 17:30:00,
2013-01-17 10:31:00,43.3,7.0,30.26,NE,37,7.5,0.0,22,0.00,,CLR,0.00,VWS V14.01,2013-01-17 17:31:00,
2013-01-17 10:36:00,43.6,7.3,30.26,North,0,10.5,0.0,22,0.00,,CLR,0.00,VWS V14.01,2013-01-17 17:36:00,
2013-01-17 10:40:00,44.2,6.8,30.26,NNE,12,3.0,0.0,21,0.00,,CLR,0.00,VWS V14.01,2013-01-17 17:40:00,
2013-01-17 10:41:00,44.1,7.7,30.26,North,349,6.0,0.0,22,0.00,,CLR,0.00,VWS V14.01,2013-01-17 17:41:00,
2013-01-17 10:46:00,44.5,7.0,30.26,NNE,19,3.0,0.0,21,0.00,,CLR,0.00,VWS V14.01,2013-01-17 17:46:00,
2013-01-17 10:50:00,45.2,7.6,30.25,NNE,32,1.5,0.0,21,0.00,,CLR,0.00,VWS V14.01,2013-01-17 17:50:00,
2013-01-17 10:51:00,45.1,7.5,30.25,North,0,6.0,0.0,21,0.00,,CLR,0.00,VWS V14.01,2013-01-17 17:51:00,
2013-01-17 10:56:00,45.5,7.8,30.25,North,4,3.0,0.0,21,0.00,,CLR,0.00,VWS V14.01,2013-01-17 17:56:00,
2013-01-17 11:00:00,46.2,8.4,30.25,North,358,6.0,0.0,21,0.00,,CLR,0.00,VWS V14.01,2013-01-17 18:00:00,
2013-01-17 11:01:00,46.1,8.4,30.25,North,0,4.5,0.0,21,0.00,,CLR,0.00,VWS V14.01,2013-01-17 18:01:00,
2013-01-17 11:06:00,46.5,8.7,30.25,NNW,342,1.5,0.0,21,0.00,,CLR,0.00,VWS V14.01,2013-01-17 18:06:00,
2013-01-17 11:10:00,47.1,8.1,30.25,NNE,32,3.0,0.0,20,0.00,,CLR,0.00,VWS V14.01,2013-01-17 18:10:00,
2013-01-17 11:11:00,47.0,8.0,30.25,North,0,1.5,0.0,20,0.00,,CLR,0.00,VWS V14.01,2013-01-17 18:11:00,
2013-01-17 11:16:00,47.6,8.5,30.25,NE,34,3.0,0.0,20,0.00,,CLR,0.00,VWS V14.01,2013-01-17 18:16:00,
2013-01-17 11:20:00,49.4,8.9,30.23,SE,139,1.5,0.0,19,0.00,,CLR,0.00,VWS V14.01,2013-01-17 18:20:00,
2013-01-17 11:21:00,48.9,8.5,30.23,North,0,6.0,0.0,19,0.00,,CLR,0.00,VWS V14.01,2013-01-17 18:21:00,
2013-01-17 11:26:00,49.9,9.3,30.23,NE,56,3.0,0.0,19,0.00,,CLR,0.00,VWS V14.01,2013-01-17 18:26:00,
2013-01-17 11:30:00,50.4,9.7,30.23,East,83,1.5,0.0,19,0.00,,CLR,0.00,VWS V14.01,2013-01-17 18:30:00,
2013-01-17 11:31:00,50.2,9.6,30.23,East,89,6.0,0.0,19,0.00,,CLR,0.00,VWS V14.01,2013-01-17 18:31:00,
2013-01-17 11:36:00,50.2,9.6,30.23,North,0,4.5,0.0,19,0.00,,CLR,0.00,VWS V14.01,2013-01-17 18:36:00,
2013-01-17 11:40:00,50.4,10.9,30.23,South,174,1.5,0.0,20,0.00,,CLR,0.00,VWS V14.01,2013-01-17 18:40:00,
2013-01-17 11:41:00,50.4,9.7,30.23,North,0,4.5,0.0,19,0.00,,CLR,0.00,VWS V14.01,2013-01-17 18:41:00,
2013-01-17 11:46:00,50.8,10.0,30.23,North,0,4.5,0.0,19,0.00,,CLR,0.00,VWS V14.01,2013-01-17 18:46:00,
2013-01-17 11:50:00,51.6,10.7,30.22,SE,130,1.5,0.0,19,0.00,,CLR,0.00,VWS V14.01,2013-01-17 18:50:00,
2013-01-17 11:51:00,51.4,10.5,30.22,North,0,3.0,0.0,19,0.00,,CLR,0.00,VWS V14.01,2013-01-17 18:51:00,
2013-01-17 11:56:00,51.7,10.8,30.22,SE,146,1.5,0.0,19,0.00,,CLR,0.00,VWS V14.01,2013-01-17 18:56:00,
2013-01-17 12:00:00,52.8,11.7,30.21,North,0,6.0,0.0,19,0.00,,CLR,0.00,VWS V14.01,2013-01-17 19:00:00,
2013-01-17 12:01:00,52.5,12.6,30.22,SE,137,3.0,0.0,20,0.00,,CLR,0.00,VWS V14.01,2013-01-17 19:01:00,
2013-01-17 12:06:00,52.5,10.2,30.21,North,0,4.5,0.0,18,0.00,,CLR,0.00,VWS V14.01,2013-01-17 19:06:00,
2013-01-17 12:10:00,52.6,12.7,30.21,North,0,7.5,0.0,20,0.00,,CLR,0.00,VWS V14.01,2013-01-17 19:10:00,
2013-01-17 12:11:00,52.6,11.5,30.21,North,0,6.0,0.0,19,0.00,,CLR,0.00,VWS V14.01,2013-01-17 19:11:00,
2013-01-17 12:16:00,53.2,12.0,30.21,North,0,13.5,0.0,19,0.00,,CLR,0.00,VWS V14.01,2013-01-17 19:16:00,
2013-01-17 12:20:00,52.8,14.0,30.20,North,0,9.0,0.0,21,0.00,,CLR,0.00,VWS V14.01,2013-01-17 19:20:00,
2013-01-17 12:21:00,53.1,14.2,30.20,ESE,122,18.0,0.0,21,0.00,,CLR,0.00,VWS V14.01,2013-01-17 19:21:00,
2013-01-17 12:26:00,52.5,13.7,30.20,North,0,4.5,0.0,21,0.00,,CLR,0.00,VWS V14.01,2013-01-17 19:26:00,
2013-01-17 12:30:00,53.1,13.1,30.19,North,0,7.5,0.0,20,0.00,,CLR,0.00,VWS V14.01,2013-01-17 19:30:00,
2013-01-17 12:31:00,53.1,13.1,30.20,North,0,6.0,0.0,20,0.00,,CLR,0.00,VWS V14.01,2013-01-17 19:31:00,
2013-01-17 12:36:00,53.1,13.1,30.19,SE,131,6.0,0.0,20,0.00,,CLR,0.00,VWS V14.01,2013-01-17 19:36:00,
2013-01-17 12:40:00,53.5,13.4,30.19,North,0,15.0,0.0,20,0.00,,CLR,0.00,VWS V14.01,2013-01-17 19:40:00,
2013-01-17 12:41:00,53.2,13.2,30.19,North,0,7.5,0.0,20,0.00,,CLR,0.00,VWS V14.01,2013-01-17 19:41:00,
2013-01-17 12:46:00,53.3,14.4,30.19,SE,130,1.5,0.0,21,0.00,,CLR,0.00,VWS V14.01,2013-01-17 19:46:00,
2013-01-17 12:50:00,53.9,14.9,30.18,North,0,9.0,0.0,21,0.00,,CLR,0.00,VWS V14.01,2013-01-17 19:50:00,
2013-01-17 12:51:00,53.6,14.6,30.18,North,0,10.5,0.0,21,0.00,,CLR,0.00,VWS V14.01,2013-01-17 19:51:00,
2013-01-17 12:56:00,54.2,15.1,30.18,North,0,3.0,0.0,21,0.00,,CLR,0.00,VWS V14.01,2013-01-17 19:56:00,
2013-01-17 13:00:00,54.5,16.5,30.17,North,0,4.5,0.0,22,0.00,,CLR,0.00,VWS V14.01,2013-01-17 20:00:00,
2013-01-17 13:01:00,54.4,16.4,30.18,ENE,75,7.5,0.0,22,0.00,,CLR,0.00,VWS V14.01,2013-01-17 20:01:00,
2013-01-17 13:06:00,54.4,16.4,30.17,SE,131,6.0,0.0,22,0.00,,CLR,0.00,VWS V14.01,2013-01-17 20:06:00,
2013-01-17 13:10:00,54.7,16.6,30.17,North,0,16.5,0.0,22,0.00,,CLR,0.00,VWS V14.01,2013-01-17 20:10:00,
2013-01-17 13:11:00,54.5,17.5,30.17,ESE,109,7.5,0.0,23,0.00,,CLR,0.00,VWS V14.01,2013-01-17 20:11:00,
2013-01-17 13:16:00,54.8,16.7,30.17,North,0,16.5,0.0,22,0.00,,CLR,0.00,VWS V14.01,2013-01-17 20:16:00,
2013-01-17 13:20:00,55.1,17.0,30.17,North,0,10.5,0.0,22,0.00,,CLR,0.00,VWS V14.01,2013-01-17 20:20:00,
2013-01-17 13:21:00,55.0,16.9,30.17,North,0,3.0,0.0,22,0.00,,CLR,0.00,VWS V14.01,2013-01-17 20:21:00,
2013-01-17 13:26:00,55.3,17.1,30.17,North,0,6.0,0.0,22,0.00,,CLR,0.00,VWS V14.01,2013-01-17 20:26:00,
2013-01-17 13:30:00,55.4,17.2,30.15,North,0,10.5,0.0,22,0.00,,CLR,0.00,VWS V14.01,2013-01-17 20:30:00,
2013-01-17 13:31:00,55.4,17.2,30.17,North,0,10.5,0.0,22,0.00,,CLR,0.00,VWS V14.01,2013-01-17 20:31:00,
2013-01-17 13:36:00,55.6,17.4,30.15,North,0,15.0,0.0,22,0.00,,CLR,0.00,VWS V14.01,2013-01-17 20:36:00,
2013-01-17 13:40:00,55.4,17.2,30.15,SE,126,10.5,0.0,22,0.00,,CLR,0.00,VWS V14.01,2013-01-17 20:40:00,
2013-01-17 13:41:00,55.6,17.4,30.15,SE,132,9.0,0.0,22,0.00,,CLR,0.00,VWS V14.01,2013-01-17 20:41:00,
2013-01-17 13:46:00,55.6,17.4,30.15,North,0,7.5,0.0,22,0.00,,CLR,0.00,VWS V14.01,2013-01-17 20:46:00,
2013-01-17 13:50:00,56.3,18.0,30.15,North,0,3.0,0.0,22,0.00,,CLR,0.00,VWS V14.01,2013-01-17 20:50:00,
2013-01-17 13:51:00,56.2,17.9,30.15,North,0,13.5,0.0,22,0.00,,CLR,0.00,VWS V14.01,2013-01-17 20:51:00,
2013-01-17 13:56:00,56.2,17.9,30.15,North,0,10.5,0.0,22,0.00,,CLR,0.00,VWS V14.01,2013-01-17 20:56:00,
2013-01-17 14:00:00,55.9,17.6,30.14,ESE,122,16.5,0.0,22,0.00,,CLR,0.00,VWS V14.01,2013-01-17 21:00:00,
2013-01-17 14:01:00,55.9,17.6,30.15,North,0,9.0,0.0,22,0.00,,CLR,0.00,VWS V14.01,2013-01-17 21:01:00,
2013-01-17 14:06:00,55.9,17.6,30.14,ENE,78,6.0,0.0,22,0.00,,CLR,0.00,VWS V14.01,2013-01-17 21:06:00,
2013-01-17 14:10:00,56.2,17.9,30.14,North,0,16.5,0.0,22,0.00,,CLR,0.00,VWS V14.01,2013-01-17 21:10:00,
2013-01-17 14:11:00,56.2,17.9,30.14,North,0,6.0,0.0,22,0.00,,CLR,0.00,VWS V14.01,2013-01-17 21:11:00,
2013-01-17 14:16:00,56.3,18.0,30.14,ENE,58,15.0,0.0,22,0.00,,CLR,0.00,VWS V14.01,2013-01-17 21:16:00,
2013-01-17 14:20:00,56.2,17.9,30.14,North,0,13.5,0.0,22,0.00,,CLR,0.00,VWS V14.01,2013-01-17 21:20:00,
2013-01-17 14:21:00,56.2,17.9,30.14,East,79,9.0,0.0,22,0.00,,CLR,0.00,VWS V14.01,2013-01-17 21:21:00,
2013-01-17 14:26:00,56.2,17.9,30.14,North,0,7.5,0.0,22,0.00,,CLR,0.00,VWS V14.01,2013-01-17 21:26:00,
2013-01-17 14:30:00,56.5,18.1,30.14,North,0,18.0,0.0,22,0.00,,CLR,0.00,VWS V14.01,2013-01-17 21:30:00,
2013-01-17 14:31:00,56.5,18.1,30.14,North,0,10.5,0.0,22,0.00,,CLR,0.00,VWS V14.01,2013-01-17 21:31:00,
2013-01-17 14:36:00,56.5,18.1,30.14,North,0,10.5,0.0,22,0.00,,CLR,0.00,VWS V14.01,2013-01-17 21:36:00,
2013-01-17 14:40:00,56.6,18.2,30.14,North,0,7.5,0.0,22,0.00,,CLR,0.00,VWS V14.01,2013-01-17 21:40:00,
2013-01-17 14:41:00,56.6,18.2,30.14,North,0,10.5,0.0,22,0.00,,CLR,0.00,VWS V14.01,2013-01-17 21:41:00,
2013-01-17 14:46:00,56.7,18.3,30.14,North,0,10.5,0.0,22,0.00,,CLR,0.00,VWS V14.01,2013-01-17 21:46:00,
2013-01-17 14:50:00,57.2,18.7,30.13,North,0,6.0,0.0,22,0.00,,CLR,0.00,VWS V14.01,2013-01-17 21:50:00,
2013-01-17 14:51:00,57.0,18.5,30.13,North,0,13.5,0.0,22,0.00,,CLR,0.00,VWS V14.01,2013-01-17 21:51:00,
2013-01-17 14:56:00,57.2,18.7,30.13,ENE,68,3.0,0.0,22,0.00,,CLR,0.00,VWS V14.01,2013-01-17 21:56:00,
2013-01-17 15:00:00,57.3,18.8,30.13,ESE,123,9.0,0.0,22,0.00,,CLR,0.00,VWS V14.01,2013-01-17 22:00:00,
2013-01-17 15:01:00,57.2,18.7,30.13,North,0,10.5,0.0,22,0.00,,CLR,0.00,VWS V14.01,2013-01-17 22:01:00,
2013-01-17 15:06:00,57.2,17.6,30.13,NE,39,10.5,0.0,21,0.00,,CLR,0.00,VWS V14.01,2013-01-17 22:06:00,
2013-01-17 15:11:00,57.3,17.7,30.13,North,0,7.5,0.0,21,0.00,,CLR,0.00,VWS V14.01,2013-01-17 22:11:00,
2013-01-17 15:16:00,57.2,17.6,30.13,ESE,120,7.5,0.0,21,0.00,,CLR,0.00,VWS V14.01,2013-01-17 22:16:00,
2013-01-17 15:20:00,57.0,17.5,30.12,North,0,15.0,0.0,21,0.00,,CLR,0.00,VWS V14.01,2013-01-17 22:20:00,
2013-01-17 15:25:00,57.2,18.7,30.12,North,0,21.0,0.0,22,0.00,,CLR,0.00,VWS V14.01,2013-01-17 22:25:00,
2013-01-17 15:30:00,57.0,18.5,30.12,ESE,120,13.5,0.0,22,0.00,,CLR,0.00,VWS V14.01,2013-01-17 22:30:00,
2013-01-17 15:35:00,57.2,18.7,30.12,SE,124,7.5,0.0,22,0.00,,CLR,0.00,VWS V14.01,2013-01-17 22:35:00,
2013-01-17 15:40:00,57.3,18.8,30.12,North,0,16.5,0.0,22,0.00,,CLR,0.00,VWS V14.01,2013-01-17 22:40:00,
2013-01-17 15:45:00,57.0,18.5,30.12,ESE,108,3.0,0.0,22,0.00,,CLR,0.00,VWS V14.01,2013-01-17 22:45:00,
2013-01-17 15:50:00,57.0,18.5,30.13,North,0,7.5,0.0,22,0.00,,CLR,0.00,VWS V14.01,2013-01-17 22:50:00,
2013-01-17 15:55:00,57.0,18.5,30.13,SE,128,10.5,0.0,22,0.00,,CLR,0.00,VWS V14.01,2013-01-17 22:55:00,
2013-01-17 16:00:00,56.9,18.5,30.13,SE,125,13.5,0.0,22,0.00,,CLR,0.00,VWS V14.01,2013-01-17 23:00:00,
2013-01-17 16:05:00,56.7,18.3,30.13,SE,129,3.0,0.0,22,0.00,,CLR,0.00,VWS V14.01,2013-01-17 23:05:00,
2013-01-17 16:10:00,56.7,18.3,30.13,ESE,122,6.0,0.0,22,0.00,,CLR,0.00,VWS V14.01,2013-01-17 23:10:00,
2013-01-17 16:15:00,56.7,18.3,30.13,SSE,147,13.5,0.0,22,0.00,,CLR,0.00,VWS V14.01,2013-01-17 23:15:00,
2013-01-17 16:20:00,56.5,19.2,30.13,North,0,19.5,0.0,23,0.00,,CLR,0.00,VWS V14.01,2013-01-17 23:20:00,
2013-01-17 16:25:00,56.3,19.0,30.13,North,0,9.0,0.0,23,0.00,,CLR,0.00,VWS V14.01,2013-01-17 23:25:00,
2013-01-17 16:30:00,56.5,19.2,30.13,North,0,21.0,0.0,23,0.00,,CLR,0.00,VWS V14.01,2013-01-17 23:30:00,
2013-01-17 16:35:00,56.3,19.0,30.14,ESE,107,7.5,0.0,23,0.00,,CLR,0.00,VWS V14.01,2013-01-17 23:35:00,
2013-01-17 16:40:00,56.2,18.9,30.14,North,0,10.5,0.0,23,0.00,,CLR,0.00,VWS V14.01,2013-01-17 23:40:00,
2013-01-17 16:45:00,56.0,19.7,30.14,ESE,117,15.0,0.0,24,0.00,,CLR,0.00,VWS V14.01,2013-01-17 23:45:00,
2013-01-17 16:50:00,55.9,19.6,30.14,SE,141,12.0,0.0,24,0.00,,CLR,0.00,VWS V14.01,2013-01-17 23:50:00,
2013-01-17 16:55:00,55.7,19.5,30.14,ESE,112,18.0,0.0,24,0.00,,CLR,0.00,VWS V14.01,2013-01-17 23:55:00,
2013-01-17 17:00:00,55.6,19.4,30.14,SE,129,15.0,0.0,24,0.00,,CLR,0.00,VWS V14.01,2013-01-18 00:00:00,
2013-01-17 17:05:00,55.3,19.1,30.14,North,0,9.0,0.0,24,0.00,,CLR,0.00,VWS V14.01,2013-01-18 00:05:00,
2013-01-17 17:10:00,55.1,19.9,30.14,SE,125,9.0,0.0,25,0.00,,CLR,0.00,VWS V14.01,2013-01-18 00:10:00,
2013-01-17 17:15:00,55.0,19.8,30.14,ESE,115,6.0,0.0,25,0.00,,CLR,0.00,VWS V14.01,2013-01-18 00:15:00,
2013-01-17 17:20:00,54.7,19.6,30.14,ESE,120,7.5,0.0,25,0.00,,CLR,0.00,VWS V14.01,2013-01-18 00:20:00,
2013-01-17 17:25:00,54.4,20.2,30.14,North,0,7.5,0.0,26,0.00,,CLR,0.00,VWS V14.01,2013-01-18 00:25:00,
2013-01-17 17:30:00,54.1,20.0,30.14,North,0,7.5,0.0,26,0.00,,CLR,0.00,VWS V14.01,2013-01-18 00:30:00,
2013-01-17 17:35:00,53.9,19.8,30.15,ESE,111,7.5,0.0,26,0.00,,CLR,0.00,VWS V14.01,2013-01-18 00:35:00,
2013-01-17 17:40:00,53.8,19.7,30.15,SE,135,6.0,0.0,26,0.00,,CLR,0.00,VWS V14.01,2013-01-18 00:40:00,
2013-01-17 17:45:00,53.6,19.6,30.15,ESE,110,4.5,0.0,26,0.00,,CLR,0.00,VWS V14.01,2013-01-18 00:45:00,
2013-01-17 17:50:00,53.5,19.5,30.15,North,0,4.5,0.0,26,0.00,,CLR,0.00,VWS V14.01,2013-01-18 00:50:00,
2013-01-17 17:55:00,53.2,20.1,30.15,ESE,121,7.5,0.0,27,0.00,,FEW250,0.00,VWS V14.01,2013-01-18 00:55:00,
2013-01-17 18:00:00,53.1,20.0,30.15,ESE,120,6.0,0.0,27,0.00,,FEW250,0.00,VWS V14.01,2013-01-18 01:00:00,
2013-01-17 18:05:00,52.9,19.9,30.16,SE,124,4.5,0.0,27,0.00,,FEW250,0.00,VWS V14.01,2013-01-18 01:05:00,
2013-01-17 18:10:00,52.6,19.6,30.16,ESE,121,4.5,0.0,27,0.00,,FEW250,0.00,VWS V14.01,2013-01-18 01:10:00,
2013-01-17 18:15:00,52.3,19.3,30.16,ESE,111,3.0,0.0,27,0.00,,FEW250,0.00,VWS V14.01,2013-01-18 01:15:00,
2013-01-17 18:20:00,52.2,20.1,30.16,ESE,121,6.0,0.0,28,0.00,,FEW250,0.00,VWS V14.01,2013-01-18 01:20:00,
2013-01-17 18:25:00,51.9,19.8,30.16,SE,132,4.5,0.0,28,0.00,,FEW250,0.00,VWS V14.01,2013-01-18 01:25:00,
2013-01-17 18:30:00,51.7,19.7,30.16,East,96,4.5,0.0,28,0.00,,FEW250,0.00,VWS V14.01,2013-01-18 01:30:00,
2013-01-17 18:35:00,51.6,19.6,30.17,SE,127,9.0,0.0,28,0.00,,FEW250,0.00,VWS V14.01,2013-01-18 01:35:00,
2013-01-17 18:40:00,51.4,19.4,30.17,North,0,4.5,0.0,28,0.00,,FEW250,0.00,VWS V14.01,2013-01-18 01:40:00,
2013-01-17 18:45:00,51.1,19.1,30.17,East,100,4.5,0.0,28,0.00,,FEW250,0.00,VWS V14.01,2013-01-18 01:45:00,
2013-01-17 18:50:00,51.1,19.1,30.16,ESE,112,7.5,0.0,28,0.00,,FEW250,0.00,VWS V14.01,2013-01-18 01:50:00,
2013-01-17 18:55:00,51.1,19.1,30.16,SE,127,9.0,0.0,28,0.00,,CLR,0.00,VWS V14.01,2013-01-18 01:55:00,
2013-01-17 19:00:00,51.0,19.1,30.16,SE,133,6.0,0.0,28,0.00,,CLR,0.00,VWS V14.01,2013-01-18 02:00:00,
2013-01-17 19:05:00,51.0,19.1,30.16,SE,134,13.5,0.0,28,0.00,,CLR,0.00,VWS V14.01,2013-01-18 02:05:00,
2013-01-17 19:10:00,51.0,19.1,30.16,ESE,106,7.5,0.0,28,0.00,,CLR,0.00,VWS V14.01,2013-01-18 02:10:00,
2013-01-17 19:15:00,50.8,18.0,30.16,East,82,6.0,0.0,27,0.00,,CLR,0.00,VWS V14.01,2013-01-18 02:15:00,
2013-01-17 19:20:00,50.2,18.4,30.17,ENE,76,3.0,0.0,28,0.00,,CLR,0.00,VWS V14.01,2013-01-18 02:20:00,
2013-01-17 19:25:00,49.6,17.9,30.17,ENE,58,4.5,0.0,28,0.00,,CLR,0.00,VWS V14.01,2013-01-18 02:25:00,
2013-01-17 19:30:00,48.8,18.0,30.17,NE,51,7.5,0.0,29,0.00,,CLR,0.00,VWS V14.01,2013-01-18 02:30:00,
2013-01-17 19:35:00,48.0,18.8,30.17,NE,46,4.5,0.0,31,0.00,,CLR,0.00,VWS V14.01,2013-01-18 02:35:00,
2013-01-17 19:40:00,47.4,18.3,30.17,ENE,60,3.0,0.0,31,0.00,,CLR,0.00,VWS V14.01,2013-01-18 02:40:00,
2013-01-17 19:45:00,47.1,18.0,30.17,North,0,7.5,0.0,31,0.00,,CLR,0.00,VWS V14.01,2013-01-18 02:45:00,
2013-01-17 19:50:00,47.0,18.0,30.17,North,0,6.0,0.0,31,0.00,,CLR,0.00,VWS V14.01,2013-01-18 02:50:00,
2013-01-17 19:55:00,46.7,18.4,30.17,NNE,32,4.5,0.0,32,0.00,,CLR,0.00,VWS V14.01,2013-01-18 02:55:00,
2013-01-17 20:00:00,46.5,18.2,30.17,NE,47,4.5,0.0,32,0.00,,CLR,0.00,VWS V14.01,2013-01-18 03:00:00,
2013-01-17 20:05:00,46.5,18.2,30.17,North,0,7.5,0.0,32,0.00,,CLR,0.00,VWS V14.01,2013-01-18 03:05:00,
2013-01-17 20:10:00,46.5,18.2,30.17,NE,51,6.0,0.0,32,0.00,,CLR,0.00,VWS V14.01,2013-01-18 03:10:00,
2013-01-17 20:15:00,46.5,18.2,30.17,ENE,63,7.5,0.0,32,0.00,,CLR,0.00,VWS V14.01,2013-01-18 03:15:00,
2013-01-17 20:20:00,46.4,18.9,30.17,NE,40,3.0,0.0,33,0.00,,CLR,0.00,VWS V14.01,2013-01-18 03:20:00,
2013-01-17 20:25:00,46.2,18.7,30.17,NE,34,4.5,0.0,33,0.00,,CLR,0.00,VWS V14.01,2013-01-18 03:25:00,
2013-01-17 20:30:00,46.2,18.7,30.17,NE,50,3.0,0.0,33,0.00,,CLR,0.00,VWS V14.01,2013-01-18 03:30:00,
2013-01-17 20:35:00,46.1,19.3,30.17,ENE,57,4.5,0.0,34,0.00,,CLR,0.00,VWS V14.01,2013-01-18 03:35:00,
2013-01-17 20:40:00,46.1,18.6,30.17,NE,54,6.0,0.0,33,0.00,,CLR,0.00,VWS V14.01,2013-01-18 03:40:00,
2013-01-17 20:45:00,46.1,18.6,30.17,North,0,3.0,0.0,33,0.00,,CLR,0.00,VWS V14.01,2013-01-18 03:45:00,
2013-01-17 20:50:00,46.1,19.3,30.16,NE,37,3.0,0.0,34,0.00,,CLR,0.00,VWS V14.01,2013-01-18 03:50:00,
2013-01-17 20:55:00,46.1,19.3,30.16,North,0,7.5,0.0,34,0.00,,CLR,0.00,VWS V14.01,2013-01-18 03:55:00,
2013-01-17 21:00:00,45.8,19.0,30.16,NE,54,10.5,0.0,34,0.00,,CLR,0.00,VWS V14.01,2013-01-18 04:00:00,
2013-01-17 21:05:00,45.5,19.5,30.17,ENE,63,4.5,0.0,35,0.00,,CLR,0.00,VWS V14.01,2013-01-18 04:05:00,
2013-01-17 21:10:00,45.5,19.5,30.17,NE,53,6.0,0.0,35,0.00,,CLR,0.00,VWS V14.01,2013-01-18 04:10:00,
2013-01-17 21:15:00,45.5,19.5,30.17,North,0,7.5,0.0,35,0.00,,CLR,0.00,VWS V14.01,2013-01-18 04:15:00,
2013-01-17 21:20:00,45.5,19.5,30.17,ENE,72,4.5,0.0,35,0.00,,CLR,0.00,VWS V14.01,2013-01-18 04:20:00,
2013-01-17 21:25:00,45.4,20.0,30.17,North,0,9.0,0.0,36,0.00,,CLR,0.00,VWS V14.01,2013-01-18 04:25:00,
2013-01-17 21:30:00,45.2,19.9,30.17,East,80,4.5,0.0,36,0.00,,CLR,0.00,VWS V14.01,2013-01-18 04:30:00,
2013-01-17 21:35:00,45.1,19.8,30.17,ENE,67,13.5,0.0,36,0.00,,CLR,0.00,VWS V14.01,2013-01-18 04:35:00,
2013-01-17 21:40:00,44.9,20.2,30.17,NE,49,3.0,0.0,37,0.00,,CLR,0.00,VWS V14.01,2013-01-18 04:40:00,
2013-01-17 21:45:00,44.6,20.0,30.17,ENE,77,3.0,0.0,37,0.00,,CLR,0.00,VWS V14.01,2013-01-18 04:45:00,
2013-01-17 21:50:00,44.3,20.3,30.17,NE,54,6.0,0.0,38,0.00,,CLR,0.00,VWS V14.01,2013-01-18 04:50:00,
2013-01-17 21:55:00,44.1,20.1,30.17,North,0,7.5,0.0,38,0.00,,CLR,0.00,VWS V14.01,2013-01-18 04:55:00,
2013-01-17 22:00:00,43.8,19.9,30.17,ENE,59,3.0,0.0,38,0.00,,CLR,0.00,VWS V14.01,2013-01-18 05:00:00,
2013-01-17 22:02:00,43.6,19.7,30.17,North,0,6.0,0.0,38,0.00,,CLR,0.00,VWS V14.01,2013-01-18 05:02:00,
2013-01-17 22:07:00,43.3,20.0,30.17,NNE,28,6.0,0.0,39,0.00,,CLR,0.00,VWS V14.01,2013-01-18 05:07:00,
2013-01-17 22:12:00,43.2,19.9,30.17,North,0,4.5,0.0,39,0.00,,CLR,0.00,VWS V14.01,2013-01-18 05:12:00,
2013-01-17 22:17:00,42.9,20.3,30.17,NE,38,3.0,0.0,40,0.00,,CLR,0.00,VWS V14.01,2013-01-18 05:17:00,
2013-01-17 22:22:00,42.8,20.2,30.16,NE,42,4.5,0.0,40,0.00,,CLR,0.00,VWS V14.01,2013-01-18 05:22:00,
2013-01-17 22:27:00,42.6,20.0,30.16,NE,41,3.0,0.0,40,0.00,,CLR,0.00,VWS V14.01,2013-01-18 05:27:00,
2013-01-17 22:32:00,42.6,20.6,30.16,NNE,33,1.5,0.0,41,0.00,,CLR,0.00,VWS V14.01,2013-01-18 05:32:00,
2013-01-17 22:37:00,42.5,20.5,30.16,North,0,6.0,0.0,41,0.00,,CLR,0.00,VWS V14.01,2013-01-18 05:37:00,
2013-01-17 22:42:00,42.2,20.2,30.16,NNE,27,3.0,0.0,41,0.00,,CLR,0.00,VWS V14.01,2013-01-18 05:42:00,
2013-01-17 22:47:00,41.9,19.9,30.16,NNE,26,1.5,0.0,41,0.00,,CLR,0.00,VWS V14.01,2013-01-18 05:47:00,
2013-01-17 22:52:00,41.5,20.1,30.16,NNE,30,1.5,0.0,42,0.00,,CLR,0.00,VWS V14.01,2013-01-18 05:52:00,
2013-01-17 22:57:00,40.9,20.1,30.16,NNE,28,3.0,0.0,43,0.00,,CLR,0.00,VWS V14.01,2013-01-18 05:57:00,
2013-01-17 23:02:00,39.8,19.1,30.16,NNW,338,4.5,0.0,43,0.00,,CLR,0.00,VWS V14.01,2013-01-18 06:02:00,
2013-01-17 23:07:00,38.9,19.4,30.15,NNW,338,3.0,0.0,45,0.00,,CLR,0.00,VWS V14.01,2013-01-18 06:07:00,
2013-01-17 23:12:00,38.3,19.4,30.15,NNW,338,3.0,0.0,46,0.00,,CLR,0.00,VWS V14.01,2013-01-18 06:12:00,
2013-01-17 23:17:00,38.3,20.4,30.15,NNW,347,3.0,0.0,48,0.00,,CLR,0.00,VWS V14.01,2013-01-18 06:17:00,
2013-01-17 23:22:00,38.8,20.8,30.15,North,357,3.0,0.0,48,0.00,,CLR,0.00,VWS V14.01,2013-01-18 06:22:00,
2013-01-17 23:27:00,39.2,20.7,30.15,North,0,3.0,0.0,47,0.00,,CLR,0.00,VWS V14.01,2013-01-18 06:27:00,
2013-01-17 23:32:00,39.8,20.7,30.15,North,6,3.0,0.0,46,0.00,,CLR,0.00,VWS V14.01,2013-01-18 06:32:00,
2013-01-17 23:37:00,40.2,21.1,30.15,NNE,18,4.5,0.0,46,0.00,,CLR,0.00,VWS V14.01,2013-01-18 06:37:00,
2013-01-17 23:42:00,40.5,21.4,30.15,NNE,23,4.5,0.0,46,0.00,,CLR,0.00,VWS V14.01,2013-01-18 06:42:00,
2013-01-17 23:47:00,40.6,20.9,30.15,NNE,20,3.0,0.0,45,0.00,,CLR,0.00,VWS V14.01,2013-01-18 06:47:00,
2013-01-17 23:52:00,40.9,21.2,30.14,NE,38,6.0,0.0,45,0.00,,CLR,0.00,VWS V14.01,2013-01-18 06:52:00,
2013-01-17 23:57:00,40.9,21.2,30.14,NE,37,3.0,0.0,45,0.00,,CLR,0.00,VWS V14.01,2013-01-18 06:57:00,